When you browse on this site, cookies collect data to enhance your experience and personalize the content and advertising you see.
Visit our Privacy Policy to learn more. By continuing to use the site, you agree to this use of cookies and data.
EN

Hourly Weather Barra

Today, 11 July, Saturday

Time Temperature Precipitation Wind Pressure Humidity
00:00 +30°C° 0 mm 5 mps 757 mmHg 72%
01:00 +29°C° 0 mm 5 mps 756 mmHg 73%
02:00 +29°C° 0 mm 5 mps 756 mmHg 73%
03:00 +29°C° 0 mm 5 mps 756 mmHg 73%
04:00 +29°C° 0 mm 5 mps 756 mmHg 74%
05:00 +29°C° 0 mm 4 mps 756 mmHg 79%
06:00 +29°C° 0.1 mm 4 mps 757 mmHg 77%
07:00 +30°C° 0.1 mm 4 mps 757 mmHg 74%
08:00 +30°C° 0.1 mm 4 mps 757 mmHg 71%
09:00 +30°C° 0.9 mm 3 mps 757 mmHg 74%
10:00 +30°C° 0.9 mm 3 mps 758 mmHg 76%
11:00 +30°C° 0 mm 3 mps 758 mmHg 76%
12:00 +32°C° 0.1 mm 4 mps 757 mmHg 73%
13:00 +32°C° 0.1 mm 4 mps 756 mmHg 70%
14:00 +33°C° 0.1 mm 5 mps 756 mmHg 67%
15:00 +32°C° 0 mm 5 mps 756 mmHg 68%
16:00 +32°C° 0 mm 5 mps 756 mmHg 69%
17:00 +32°C° 0 mm 5 mps 756 mmHg 69%
18:00 +30°C° 0 mm 5 mps 756 mmHg 72%
19:00 +30°C° 0 mm 5 mps 756 mmHg 74%
20:00 +29°C° 0 mm 5 mps 757 mmHg 77%
21:00 +29°C° 0 mm 4 mps 757 mmHg 77%
22:00 +29°C° 0 mm 4 mps 757 mmHg 77%
23:00 +29°C° 0 mm 4 mps 757 mmHg 78%

Tomorrow, 12 July, Sunday

Time Temperature Precipitation Wind Pressure Humidity
00:00 +29°C° 0.1 mm 4 mps 757 mmHg 78%
01:00 +29°C° 0.1 mm 4 mps 757 mmHg 78%
02:00 +29°C° 0.1 mm 4 mps 756 mmHg 78%
03:00 +29°C° 0.1 mm 4 mps 756 mmHg 78%
04:00 +28°C° 0.1 mm 4 mps 756 mmHg 79%
05:00 +28°C° 0.1 mm 3 mps 756 mmHg 80%
06:00 +28°C° 0.8 mm 4 mps 757 mmHg 80%
07:00 +28°C° 0.8 mm 4 mps 757 mmHg 80%
08:00 +28°C° 0.8 mm 4 mps 757 mmHg 80%
09:00 +28°C° 0.7 mm 3 mps 758 mmHg 81%
10:00 +27°C° 0.7 mm 3 mps 758 mmHg 82%
11:00 +27°C° 0.7 mm 2 mps 758 mmHg 82%
12:00 +27°C° 0.6 mm 3 mps 758 mmHg 81%
13:00 +27°C° 0.6 mm 4 mps 758 mmHg 81%
14:00 +28°C° 0.6 mm 5 mps 758 mmHg 80%
15:00 +27°C° 0.2 mm 5 mps 758 mmHg 80%
16:00 +27°C° 0.2 mm 5 mps 757 mmHg 80%
17:00 +27°C° 0.2 mm 5 mps 757 mmHg 80%
18:00 +27°C° 0.4 mm 5 mps 758 mmHg 82%
19:00 +26°C° 0.4 mm 4 mps 758 mmHg 84%
20:00 +26°C° 0.4 mm 4 mps 759 mmHg 87%
21:00 +26°C° 0.1 mm 4 mps 759 mmHg 86%
22:00 +26°C° 0.1 mm 3 mps 759 mmHg 86%
23:00 +26°C° 0.1 mm 3 mps 760 mmHg 85%

Day after tomorrow, 13 July, Monday

Time Temperature Precipitation Wind Pressure Humidity
00:00 +26°C° 0.1 mm 2 mps 759 mmHg 85%
01:00 +26°C° 0.1 mm 2 mps 759 mmHg 85%
02:00 +26°C° 0.1 mm 1 mps 758 mmHg 85%
03:00 +26°C° 0 mm 1 mps 759 mmHg 86%
04:00 +26°C° 0 mm 1 mps 759 mmHg 86%
05:00 +26°C° 0 mm 1 mps 759 mmHg 86%
06:00 +26°C° 0.9 mm 1 mps 759 mmHg 85%
07:00 +27°C° 0.9 mm 2 mps 760 mmHg 84%
08:00 +27°C° 0.9 mm 2 mps 760 mmHg 82%
09:00 +28°C° 0.7 mm 2 mps 760 mmHg 78%
10:00 +29°C° 0.7 mm 2 mps 760 mmHg 73%
11:00 +31°C° 0.7 mm 2 mps 760 mmHg 69%
12:00 +31°C° 0.6 mm 3 mps 759 mmHg 67%
13:00 +33°C° 0.6 mm 3 mps 759 mmHg 66%
14:00 +33°C° 0.6 mm 4 mps 759 mmHg 64%
15:00 +33°C° 0.9 mm 4 mps 758 mmHg 67%
16:00 +32°C° 0.9 mm 5 mps 758 mmHg 70%
17:00 +30°C° 0.9 mm 5 mps 758 mmHg 73%
18:00 +30°C° 1.1 mm 5 mps 758 mmHg 76%
19:00 +29°C° 1.1 mm 5 mps 759 mmHg 79%
20:00 +29°C° 1.1 mm 5 mps 760 mmHg 82%
21:00 +29°C° 0.6 mm 5 mps 760 mmHg 82%
22:00 +29°C° 0.6 mm 5 mps 760 mmHg 82%
23:00 +29°C° 0.6 mm 5 mps 760 mmHg 82%

14 July, Tuesday

Time Temperature Precipitation Wind Pressure Humidity
00:00 +28°C° 0.1 mm 6 mps 759 mmHg 83%
01:00 +28°C° 0.1 mm 6 mps 759 mmHg 83%
02:00 +28°C° 0.1 mm 6 mps 758 mmHg 83%
03:00 +28°C° 0 mm 6 mps 758 mmHg 83%
04:00 +28°C° 0 mm 6 mps 758 mmHg 83%
05:00 +28°C° 0 mm 6 mps 758 mmHg 84%
06:00 +28°C° 0 mm 6 mps 758 mmHg 81%
07:00 +29°C° 0 mm 7 mps 759 mmHg 78%
08:00 +29°C° 0 mm 7 mps 759 mmHg 75%
09:00 +30°C° 0 mm 7 mps 759 mmHg 70%
10:00 +32°C° 0 mm 7 mps 759 mmHg 66%
11:00 +33°C° 0 mm 6 mps 759 mmHg 61%
12:00 +33°C° 0 mm 6 mps 758 mmHg 60%
13:00 +33°C° 0 mm 7 mps 758 mmHg 60%
14:00 +33°C° 0 mm 7 mps 757 mmHg 59%
15:00 +33°C° 0 mm 7 mps 757 mmHg 62%
16:00 +32°C° 0 mm 7 mps 756 mmHg 65%
17:00 +30°C° 0 mm 7 mps 756 mmHg 68%
18:00 +30°C° 0 mm 7 mps 756 mmHg 71%
19:00 +29°C° 0 mm 7 mps 757 mmHg 74%
20:00 +29°C° 0 mm 7 mps 757 mmHg 77%
21:00 +28°C° 0 mm 7 mps 757 mmHg 77%
22:00 +28°C° 0 mm 6 mps 758 mmHg 77%
23:00 +28°C° 0 mm 6 mps 758 mmHg 77%

15 July, Wednesday

Time Temperature Precipitation Wind Pressure Humidity
00:00 +28°C° 0 mm 6 mps 757 mmHg 77%
01:00 +28°C° 0 mm 6 mps 757 mmHg 77%
02:00 +28°C° 0 mm 6 mps 756 mmHg 76%
03:00 +28°C° 0 mm 5 mps 756 mmHg 76%
04:00 +28°C° 0 mm 5 mps 756 mmHg 77%
05:00 +28°C° 0 mm 5 mps 756 mmHg 77%
06:00 +28°C° 0 mm 5 mps 757 mmHg 75%
07:00 +28°C° 0 mm 5 mps 757 mmHg 73%
08:00 +29°C° 0 mm 5 mps 757 mmHg 71%
09:00 +30°C° 0 mm 5 mps 757 mmHg 65%
10:00 +32°C° 0 mm 5 mps 757 mmHg 59%
11:00 +33°C° 0 mm 5 mps 757 mmHg 54%
12:00 +33°C° 0 mm 5 mps 757 mmHg 53%
13:00 +33°C° 0 mm 5 mps 756 mmHg 53%
14:00 +33°C° 0 mm 4 mps 756 mmHg 52%
15:00 +33°C° 0 mm 4 mps 756 mmHg 55%
16:00 +32°C° 0 mm 5 mps 756 mmHg 57%
17:00 +30°C° 0 mm 5 mps 755 mmHg 60%
18:00 +30°C° 0 mm 5 mps 756 mmHg 63%
19:00 +29°C° 0 mm 4 mps 757 mmHg 66%
20:00 +28°C° 0 mm 4 mps 757 mmHg 69%
21:00 +28°C° 0 mm 4 mps 758 mmHg 69%
22:00 +28°C° 0 mm 4 mps 758 mmHg 70%
23:00 +28°C° 0 mm 4 mps 758 mmHg 71%

16 July, Thursday

Time Temperature Precipitation Wind Pressure Humidity
00:00 +28°C° 0 mm 4 mps 758 mmHg 72%
01:00 +28°C° 0 mm 4 mps 757 mmHg 73%
02:00 +28°C° 0 mm 4 mps 757 mmHg 74%
03:00 +27°C° 0 mm 3 mps 757 mmHg 74%
04:00 +27°C° 0 mm 3 mps 757 mmHg 75%
05:00 +27°C° 0 mm 3 mps 758 mmHg 75%
06:00 +28°C° 0 mm 3 mps 758 mmHg 72%
07:00 +29°C° 0 mm 3 mps 759 mmHg 68%
08:00 +29°C° 0 mm 3 mps 759 mmHg 65%
09:00 +30°C° 0.2 mm 3 mps 759 mmHg 63%
10:00 +30°C° 0.2 mm 3 mps 759 mmHg 61%
11:00 +31°C° 0.2 mm 3 mps 759 mmHg 59%
12:00 +30°C° 0.7 mm 4 mps 759 mmHg 65%
13:00 +29°C° 0.7 mm 4 mps 759 mmHg 71%
14:00 +28°C° 0.7 mm 5 mps 758 mmHg 76%
15:00 +27°C° 0.9 mm 4 mps 758 mmHg 77%
16:00 +27°C° 0.9 mm 3 mps 758 mmHg 78%
17:00 +27°C° 0.9 mm 1 mps 758 mmHg 79%
18:00 +27°C° 0.1 mm 2 mps 759 mmHg 80%
19:00 +27°C° 0.1 mm 3 mps 759 mmHg 82%
20:00 +27°C° 0.1 mm 4 mps 760 mmHg 84%
21:00 +27°C° 0.2 mm 3 mps 760 mmHg 86%
22:00 +27°C° 0.2 mm 3 mps 760 mmHg 87%
23:00 +27°C° 0.2 mm 2 mps 760 mmHg 89%
Show more